This demonstration page uses our WeatherBlox Daily Observations layout. Learn more.

Left ArrowRight Arrow

39.01783, -85.05884

Hourly Observations for May 1, 2019

Temp ( °F °C ) Dew Point ( °F °C ) Humidity (%) Winds ( mph kmh ) Pressure ( in mb ) Visibility ( mi km ) Precip ( " mm )
12:52 am 00:52 Cloudy 66 18.9 58 14.4 75 75 S 7 11 30.03 1017 10 16 0.00 0.00
1:52 am 01:52 Mostly Cloudy 64 17.8 57 13.9 78 78 S 7 11 30.03 1017 10 16 0.00 0.00
2:52 am 02:52 Mostly Cloudy 63 17.2 56 13.3 78 78 S 6 9 30.02 1017 10 16 0.00 0.00
3:52 am 03:52 Cloudy 62 16.7 55 12.8 78 78 S 8 13 30.01 1016 10 16 0.00 0.00
4:52 am 04:52 Cloudy 64 17.8 56 13.3 75 75 S 9 15 30.00 1016 10 16 0.00 0.00
5:52 am 05:52 Cloudy 66 18.9 57 13.9 73 73 S 10 17 29.99 1016 10 16 0.00 0.00
6:52 am 06:52 Mostly Cloudy 66 18.9 57 13.9 73 73 S 9 15 30.01 1016 10 16 0.00 0.00
7:52 am 07:52 Mostly Cloudy 68 20 59 15 73 73 S 13 20 30.03 1017 10 16 0.00 0.00
8:52 am 08:52 Cloudy 71 21.7 60 15.6 68 68 SSW 17 28 30.04 1017 10 16 0.00 0.00
9:52 am 09:52 Mostly Cloudy 74 23.3 61 16.1 64 64 SSW 16 26 30.03 1017 10 16 0.00 0.00
10:52 am 10:52 Cloudy 75 23.9 61 16.1 62 62 SW 12 19 30.03 1017 10 16 0.00 0.00
11:52 am 11:52 Cloudy 77 25 61 16.1 58 58 SSW 18 30 30.02 1017 10 16 0.00 0.00
12:52 pm 12:52 Cloudy 76 24.4 61 16.1 60 60 SSW 16 26 30.02 1017 10 16 0.00 0.00
1:52 pm 13:52 Cloudy 78 25.6 60 15.6 54 54 SW 16 26 30.02 1017 10 16 0.00 0.00
2:52 pm 14:52 Cloudy 79 26.1 59 15 50 50 SSW 18 30 30.02 1017 10 16 0.00 0.00
3:52 pm 15:52 Cloudy 81 27.2 59 15 47 47 SSW 15 24 30.02 1017 10 16 0.00 0.00
4:52 pm 16:52 Mostly Cloudy 80 26.7 59 15 49 49 SSW 23 37 30.00 1016 10 16 0.00 0.00
5:52 pm 17:52 Cloudy 79 26.1 59 15 50 50 SSW 18 30 29.99 1016 10 16 0.00 0.00
6:42 pm 18:42 Cloudy with Thunderstorms 76 24.4 60 15.6 58 58 SW 13 20 30.01 1016 7 11 0.00 0.03
6:52 pm 18:52 Cloudy with Thunderstorms 72 22.2 62 16.7 71 71 WSW 9 15 30.02 1017 10 16 0.00 0.03
7:33 pm 19:33 Cloudy with Thunderstorms 68 20 63 17.2 84 84 W 22 35 30.06 1018 2 3 0.01 0.25
7:52 pm 19:52 Cloudy with Strong Thunderstorms 65 18.3 62 16.7 90 90 SW 6 9 30.07 1018 2 3 0.30 7.62
8:28 pm 20:28 Cloudy with Light Rain 66 18.9 63 17.2 90 90 NW 8 13 30.06 1018 7 11 0.19 4.83
8:45 pm 20:45 Cloudy with Heavy Rain 66 18.9 63 17.2 90 90 NW 20 31 30.06 1018 2 2 0.29 7.37
8:52 pm 20:52 Cloudy with Heavy Rain 66 18.9 63 17.2 90 90 NNW 13 20 30.06 1018 4 6 0.48 12.19
9:52 pm 21:52 Cloudy with Light Rain 65 18.3 63 17.2 93 93 Calm 30.06 1018 9 14 0.05 1.27
10:52 pm 22:52 Cloudy with Light Rain 65 18.3 63 17.2 93 93 SSE 3 6 30.06 1018 8 13 0.14 3.56
11:24 pm 23:24 Cloudy with Light Rain 65 18.3 63 17.2 93 93 NW 6 9 30.08 1019 4 6 0.04 1.02
11:52 pm 23:52 Cloudy with Light Rain 65 18.3 63 17.2 93 93 Calm 30.07 1018 6 10 0.11 2.79

Powered by AerisWeather